This is the latest recevied weather packets stored in our database for station/object SP4MAZ-13. If no packets are shown the sender has not sent any weather packets the latest 10 day(s).
| Time | Temp. | Humidity | Pressure | Rain* | Wind** | Luminosity | Snow |
|---|---|---|---|---|---|---|---|
| 1777541784 | 11.67° C | 41% | 2147.4 hPa | - | - | - | - |
| 1777541481 | 12.22° C | 35% | 2147.4 hPa | - | - | - | - |
| 1777541177 | 12.22° C | 37% | 2147.4 hPa | - | - | - | - |
| 1777540876 | 12.22° C | 38% | 2147.4 hPa | - | - | - | - |
| 1777540573 | 11.67° C | 37% | 2147.4 hPa | - | - | - | - |
| 1777540270 | 10° C | 40% | 2147.4 hPa | - | - | - | - |
| 1777539966 | 9.44° C | 39% | 2147.4 hPa | - | - | - | - |
| 1777539662 | 10° C | 40% | 2147.4 hPa | - | - | - | - |
| 1777539359 | 11.67° C | 38% | 2147.4 hPa | - | - | - | - |
| 1777539056 | 10.56° C | 39% | 2147.4 hPa | - | - | - | - |
| 1777538752 | 9.44° C | 41% | 2147.4 hPa | - | - | - | - |
| 1777538449 | 9.44° C | 44% | 2147.4 hPa | - | - | - | - |
| 1777538145 | 7.78° C | 47% | 2147.4 hPa | - | - | - | - |
| 1777537842 | 7.78° C | 45% | 2147.4 hPa | - | - | - | - |
| 1777537539 | 8.33° C | 45% | 2147.4 hPa | - | - | - | - |
| 1777537235 | 7.78° C | 45% | 2147.4 hPa | - | - | - | - |
| 1777536929 | 7.78° C | 49% | 2147.4 hPa | - | - | - | - |
| 1777536625 | 7.22° C | 50% | 2147.4 hPa | - | - | - | - |
| 1777536322 | 6.67° C | 54% | 2147.4 hPa | - | - | - | - |
| 1777536019 | 6.67° C | 53% | 2147.4 hPa | - | - | - | - |
| 1777535715 | 6.67° C | 52% | 2147.4 hPa | - | - | - | - |
| 1777535412 | 6.67° C | 51% | 2147.4 hPa | - | - | - | - |
| 1777535108 | 7.22° C | 50% | 2147.4 hPa | - | - | - | - |
| 1777534805 | 7.22° C | 52% | 2147.4 hPa | - | - | - | - |
| 1777534504 | 6.67° C | 52% | 2147.4 hPa | - | - | - | - |
* Rain since midnight (hover to see other rain measurements)
** Current wind speed in m/s (hover to see current wind gust speed)